Time,TemperatureF,DewpointF,PressureIn,WindDirection,WindDirectionDegrees,WindSpeedMPH,WindSpeedGustMPH,Humidity,HourlyPrecipIn,Conditions,Clouds,dailyrainin,SoftwareType,DateUTC
2013-03-09 00:03:00,22.0,20.0,-100.00,SSE,165,4.0,5.0,92,-99.99,,,-99.99,,2013-03-09 05:03:00,
2013-03-09 00:12:00,22.0,20.0,-100.00,SSE,165,4.0,5.0,92,-99.99,,,-99.99,,2013-03-09 05:12:00,
2013-03-09 00:22:00,22.0,20.0,-100.00,SSE,165,2.0,4.0,92,-99.99,,,-99.99,,2013-03-09 05:22:00,
2013-03-09 00:32:00,22.0,20.0,-100.00,SSE,155,2.0,5.0,92,-99.99,,,-99.99,,2013-03-09 05:32:00,
2013-03-09 00:43:00,22.0,20.0,-100.00,SSE,155,2.0,5.0,92,-99.99,,,-99.99,,2013-03-09 05:43:00,
2013-03-09 00:52:00,21.0,19.0,-100.00,SSE,165,2.0,4.0,93,-99.99,,,-99.99,,2013-03-09 05:52:00,
2013-03-09 01:02:00,21.0,19.0,-100.00,SSE,165,2.0,4.0,93,-99.99,,,-99.99,,2013-03-09 06:02:00,
2013-03-09 01:11:00,21.0,19.0,-100.00,SSE,165,2.0,4.0,93,-99.99,,,-99.99,,2013-03-09 06:11:00,
2013-03-09 01:22:00,21.0,19.0,-100.00,South,170,2.0,4.0,93,-99.99,,,-99.99,,2013-03-09 06:22:00,
2013-03-09 01:32:00,21.0,19.0,-100.00,SSE,155,2.0,4.0,93,-99.99,,,-99.99,,2013-03-09 06:32:00,
2013-03-09 01:42:00,21.0,19.0,-100.00,SSE,155,2.0,4.0,93,-99.99,,,-99.99,,2013-03-09 06:42:00,
2013-03-09 01:52:00,20.0,19.0,-100.00,South,175,4.0,5.0,93,-99.99,,,-99.99,,2013-03-09 06:52:00,
2013-03-09 02:01:00,21.0,19.0,-100.00,SE,145,2.0,4.0,93,-99.99,,,-99.99,,2013-03-09 07:01:00,
2013-03-09 02:11:00,21.0,19.0,-100.00,SE,145,2.0,4.0,93,-99.99,,,-99.99,,2013-03-09 07:11:00,
2013-03-09 02:21:00,20.0,19.0,-100.00,SE,145,1.0,4.0,93,-99.99,,,-99.99,,2013-03-09 07:21:00,
2013-03-09 02:32:00,20.0,18.0,-100.00,SSE,155,2.0,4.0,93,-99.99,,,-99.99,,2013-03-09 07:32:00,
2013-03-09 02:42:00,20.0,18.0,-100.00,SSE,155,2.0,4.0,93,-99.99,,,-99.99,,2013-03-09 07:42:00,
2013-03-09 02:52:00,20.0,19.0,-100.00,South,190,1.0,3.0,94,-99.99,,,-99.99,,2013-03-09 07:52:00,
2013-03-09 03:01:00,20.0,19.0,-100.00,South,190,1.0,3.0,94,-99.99,,,-99.99,,2013-03-09 08:01:00,
2013-03-09 03:11:00,20.0,19.0,-100.00,South,190,1.0,3.0,94,-99.99,,,-99.99,,2013-03-09 08:11:00,
2013-03-09 03:22:00,21.0,19.0,-100.00,SSW,195,2.0,4.0,94,-99.99,,,-99.99,,2013-03-09 08:22:00,
2013-03-09 03:32:00,21.0,19.0,-100.00,South,190,3.0,4.0,94,-99.99,,,-99.99,,2013-03-09 08:32:00,
2013-03-09 03:42:00,21.0,19.0,-100.00,South,190,3.0,4.0,94,-99.99,,,-99.99,,2013-03-09 08:42:00,
2013-03-09 03:52:00,21.0,20.0,-100.00,SSW,195,2.0,4.0,94,-99.99,,,-99.99,,2013-03-09 08:52:00,
2013-03-09 04:02:00,20.0,19.0,-100.00,South,185,2.0,4.0,94,-99.99,,,-99.99,,2013-03-09 09:02:00,
2013-03-09 04:12:00,20.0,19.0,-100.00,South,185,2.0,4.0,94,-99.99,,,-99.99,,2013-03-09 09:12:00,
2013-03-09 04:21:00,21.0,19.0,-100.00,South,185,3.0,7.0,94,-99.99,,,-99.99,,2013-03-09 09:21:00,
2013-03-09 04:32:00,21.0,19.0,-100.00,South,185,3.0,7.0,94,-99.99,,,-99.99,,2013-03-09 09:32:00,
2013-03-09 04:52:00,21.0,20.0,-100.00,South,185,4.0,5.0,94,-99.99,,,-99.99,,2013-03-09 09:52:00,
2013-03-09 05:01:00,20.0,19.0,-100.00,SSW,195,2.0,4.0,94,-99.99,,,-99.99,,2013-03-09 10:01:00,
2013-03-09 05:11:00,20.0,19.0,-100.00,SSW,195,2.0,4.0,94,-99.99,,,-99.99,,2013-03-09 10:11:00,
2013-03-09 05:22:00,21.0,20.0,-100.00,South,180,3.0,4.0,94,-99.99,,,-99.99,,2013-03-09 10:22:00,
2013-03-09 05:32:00,21.0,20.0,-100.00,South,175,2.0,6.0,94,-99.99,,,-99.99,,2013-03-09 10:32:00,
2013-03-09 05:42:00,21.0,20.0,-100.00,South,175,2.0,6.0,94,-99.99,,,-99.99,,2013-03-09 10:42:00,
2013-03-09 05:52:00,21.0,19.0,-100.00,South,190,3.0,5.0,94,-99.99,,,-99.99,,2013-03-09 10:52:00,
2013-03-09 06:01:00,20.0,19.0,-100.00,South,185,2.0,4.0,94,-99.99,,,-99.99,,2013-03-09 11:01:00,
2013-03-09 06:11:00,20.0,19.0,-100.00,South,185,2.0,4.0,94,-99.99,,,-99.99,,2013-03-09 11:11:00,
2013-03-09 06:22:00,21.0,20.0,-100.00,SSW,195,4.0,6.0,94,-99.99,,,-99.99,,2013-03-09 11:22:00,
2013-03-09 06:32:00,21.0,20.0,-100.00,South,170,3.0,5.0,95,-99.99,,,-99.99,,2013-03-09 11:32:00,
2013-03-09 06:42:00,21.0,20.0,-100.00,South,170,3.0,5.0,95,-99.99,,,-99.99,,2013-03-09 11:42:00,
2013-03-09 06:52:00,21.0,20.0,-100.00,SSE,150,3.0,7.0,94,-99.99,,,-99.99,,2013-03-09 11:52:00,
2013-03-09 07:02:00,21.0,20.0,-100.00,SSE,150,3.0,7.0,94,-99.99,,,-99.99,,2013-03-09 12:02:00,
2013-03-09 07:12:00,21.0,20.0,-100.00,SSE,150,3.0,7.0,94,-99.99,,,-99.99,,2013-03-09 12:12:00,
2013-03-09 07:22:00,22.0,20.0,-100.00,South,170,3.0,5.0,94,-99.99,,,-99.99,,2013-03-09 12:22:00,
2013-03-09 07:32:00,22.0,21.0,-100.00,SSE,155,3.0,7.0,94,-99.99,,,-99.99,,2013-03-09 12:32:00,
2013-03-09 07:42:00,22.0,21.0,-100.00,SSE,155,3.0,7.0,94,-99.99,,,-99.99,,2013-03-09 12:42:00,
2013-03-09 07:52:00,22.0,21.0,-100.00,South,180,3.0,6.0,94,-99.99,,,-99.99,,2013-03-09 12:52:00,
2013-03-09 08:02:00,23.0,22.0,-100.00,SSE,155,2.0,7.0,94,-99.99,,,-99.99,,2013-03-09 13:02:00,
2013-03-09 08:11:00,23.0,22.0,-100.00,SSE,155,2.0,7.0,94,-99.99,,,-99.99,,2013-03-09 13:11:00,
2013-03-09 08:22:00,24.0,23.0,-100.00,SSE,155,2.0,5.0,94,-99.99,,,-99.99,,2013-03-09 13:22:00,
2013-03-09 08:32:00,26.0,24.0,-100.00,SSE,155,2.0,8.0,94,-99.99,,,-99.99,,2013-03-09 13:32:00,
2013-03-09 08:42:00,26.0,24.0,-100.00,SSE,155,2.0,8.0,94,-99.99,,,-99.99,,2013-03-09 13:42:00,
2013-03-09 08:52:00,29.0,27.0,-100.00,South,175,3.0,8.0,89,-99.99,,,-99.99,,2013-03-09 13:52:00,
2013-03-09 09:01:00,29.0,27.0,-100.00,South,175,3.0,8.0,89,-99.99,,,-99.99,,2013-03-09 14:01:00,
2013-03-09 09:11:00,29.0,27.0,-100.00,South,175,3.0,8.0,89,-99.99,,,-99.99,,2013-03-09 14:11:00,
2013-03-09 09:22:00,31.0,26.0,-100.00,SSE,165,5.0,10.0,80,-99.99,,,-99.99,,2013-03-09 14:22:00,
2013-03-09 09:32:00,33.0,24.0,-100.00,SSW,205,4.0,11.0,69,-99.99,,,-99.99,,2013-03-09 14:32:00,
2013-03-09 09:42:00,33.0,24.0,-100.00,SSW,205,4.0,11.0,69,-99.99,,,-99.99,,2013-03-09 14:42:00,
2013-03-09 09:52:00,34.0,24.0,-100.00,South,170,6.0,11.0,65,-99.99,,,-99.99,,2013-03-09 14:52:00,
2013-03-09 10:02:00,34.0,24.0,-100.00,South,170,6.0,11.0,65,-99.99,,,-99.99,,2013-03-09 15:02:00,
2013-03-09 10:22:00,36.0,22.0,-100.00,SSE,150,5.0,15.0,57,-99.99,,,-99.99,,2013-03-09 15:22:00,
2013-03-09 10:32:00,37.0,22.0,-100.00,South,180,5.0,15.0,54,-99.99,,,-99.99,,2013-03-09 15:32:00,
2013-03-09 10:42:00,37.0,22.0,-100.00,South,180,5.0,15.0,54,-99.99,,,-99.99,,2013-03-09 15:42:00,
2013-03-09 10:52:00,38.0,22.0,-100.00,South,190,4.0,14.0,51,-99.99,,,-99.99,,2013-03-09 15:52:00,
2013-03-09 11:01:00,39.0,22.0,-100.00,SSW,205,4.0,16.0,51,-99.99,,,-99.99,,2013-03-09 16:01:00,
2013-03-09 11:12:00,39.0,22.0,-100.00,SSW,205,4.0,16.0,51,-99.99,,,-99.99,,2013-03-09 16:12:00,
2013-03-09 11:22:00,39.0,22.0,-100.00,SSE,160,8.0,17.0,51,-99.99,,,-99.99,,2013-03-09 16:22:00,
2013-03-09 11:32:00,40.0,22.0,-100.00,South,175,7.0,18.0,49,-99.99,,,-99.99,,2013-03-09 16:32:00,
2013-03-09 11:42:00,40.0,22.0,-100.00,South,175,7.0,18.0,49,-99.99,,,-99.99,,2013-03-09 16:42:00,
2013-03-09 11:52:00,42.0,23.0,-100.00,South,170,4.0,12.0,46,-99.99,,,-99.99,,2013-03-09 16:52:00,
2013-03-09 12:01:00,42.0,22.0,-100.00,SSW,205,4.0,11.0,45,-99.99,,,-99.99,,2013-03-09 17:01:00,
2013-03-09 12:11:00,42.0,22.0,-100.00,SSW,205,4.0,11.0,45,-99.99,,,-99.99,,2013-03-09 17:11:00,
2013-03-09 12:22:00,42.0,23.0,-100.00,South,190,7.0,15.0,46,-99.99,,,-99.99,,2013-03-09 17:22:00,
2013-03-09 12:32:00,43.0,22.0,-100.00,South,185,4.0,11.0,44,-99.99,,,-99.99,,2013-03-09 17:32:00,
2013-03-09 12:42:00,43.0,22.0,-100.00,South,185,4.0,11.0,44,-99.99,,,-99.99,,2013-03-09 17:42:00,
2013-03-09 12:52:00,43.0,22.0,-100.00,WSW,255,4.0,16.0,44,-99.99,,,-99.99,,2013-03-09 17:52:00,
2013-03-09 13:02:00,43.0,22.0,-100.00,SSE,160,4.0,9.0,43,-99.99,,,-99.99,,2013-03-09 18:02:00,
2013-03-09 13:11:00,43.0,22.0,-100.00,SSE,160,4.0,9.0,43,-99.99,,,-99.99,,2013-03-09 18:11:00,
2013-03-09 13:22:00,43.0,22.0,-100.00,SSW,200,4.0,11.0,42,-99.99,,,-99.99,,2013-03-09 18:22:00,
2013-03-09 13:32:00,45.0,22.0,-100.00,SSE,160,6.0,12.0,40,-99.99,,,-99.99,,2013-03-09 18:32:00,
2013-03-09 13:42:00,45.0,22.0,-100.00,SSE,160,6.0,12.0,40,-99.99,,,-99.99,,2013-03-09 18:42:00,
2013-03-09 13:52:00,44.0,21.0,-100.00,SSE,160,6.0,16.0,40,-99.99,,,-99.99,,2013-03-09 18:52:00,
2013-03-09 14:02:00,44.0,21.0,-100.00,SSE,165,9.0,18.0,39,-99.99,,,-99.99,,2013-03-09 19:02:00,
2013-03-09 14:12:00,44.0,21.0,-100.00,SSE,165,9.0,18.0,39,-99.99,,,-99.99,,2013-03-09 19:12:00,
2013-03-09 14:22:00,44.0,21.0,-100.00,South,180,9.0,14.0,40,-99.99,,,-99.99,,2013-03-09 19:22:00,
2013-03-09 14:32:00,44.0,21.0,-100.00,SSW,195,5.0,16.0,40,-99.99,,,-99.99,,2013-03-09 19:32:00,
2013-03-09 14:42:00,44.0,21.0,-100.00,SSW,195,5.0,16.0,40,-99.99,,,-99.99,,2013-03-09 19:42:00,
2013-03-09 14:52:00,44.0,21.0,-100.00,SSW,195,4.0,8.0,40,-99.99,,,-99.99,,2013-03-09 19:52:00,
2013-03-09 15:02:00,44.0,21.0,-100.00,SSW,195,4.0,8.0,40,-99.99,,,-99.99,,2013-03-09 20:02:00,
2013-03-09 15:22:00,44.0,22.0,-100.00,South,180,4.0,8.0,41,-99.99,,,-99.99,,2013-03-09 20:22:00,
2013-03-09 15:32:00,44.0,22.0,-100.00,South,180,4.0,8.0,40,-99.99,,,-99.99,,2013-03-09 20:32:00,
2013-03-09 15:42:00,44.0,22.0,-100.00,South,180,4.0,8.0,40,-99.99,,,-99.99,,2013-03-09 20:42:00,
2013-03-09 15:52:00,43.0,23.0,-100.00,SE,145,4.0,10.0,45,-99.99,,,-99.99,,2013-03-09 20:52:00,
2013-03-09 16:02:00,43.0,23.0,-100.00,SE,145,4.0,10.0,45,-99.99,,,-99.99,,2013-03-09 21:02:00,
2013-03-09 16:22:00,43.0,22.0,-100.00,ESE,110,7.0,18.0,43,-99.99,,,-99.99,,2013-03-09 21:22:00,
2013-03-09 16:32:00,43.0,22.0,-100.00,ESE,110,7.0,18.0,43,-99.99,,,-99.99,,2013-03-09 21:32:00,
2013-03-09 16:52:00,43.0,22.0,-100.00,SE,130,1.0,11.0,44,-99.99,,,-99.99,,2013-03-09 21:52:00,
2013-03-09 17:01:00,43.0,22.0,-100.00,ESE,115,3.0,8.0,44,-99.99,,,-99.99,,2013-03-09 22:01:00,
2013-03-09 17:11:00,43.0,22.0,-100.00,ESE,115,3.0,8.0,44,-99.99,,,-99.99,,2013-03-09 22:11:00,
2013-03-09 17:22:00,43.0,22.0,-100.00,SE,145,2.0,11.0,44,-99.99,,,-99.99,,2013-03-09 22:22:00,
2013-03-09 17:32:00,43.0,22.0,-100.00,SSE,150,5.0,10.0,44,-99.99,,,-99.99,,2013-03-09 22:32:00,
2013-03-09 17:42:00,43.0,22.0,-100.00,SSE,150,5.0,10.0,44,-99.99,,,-99.99,,2013-03-09 22:42:00,
2013-03-09 17:51:00,42.0,22.0,-100.00,SE,135,2.0,9.0,43,-99.99,,,-99.99,,2013-03-09 22:51:00,
2013-03-09 18:01:00,42.0,23.0,-100.00,SSE,165,3.0,7.0,47,-99.99,,,-99.99,,2013-03-09 23:01:00,
2013-03-09 18:11:00,42.0,23.0,-100.00,SSE,165,3.0,7.0,47,-99.99,,,-99.99,,2013-03-09 23:11:00,
2013-03-09 18:22:00,41.0,24.0,-100.00,South,190,2.0,6.0,50,-99.99,,,-99.99,,2013-03-09 23:22:00,
2013-03-09 18:32:00,40.0,23.0,-100.00,South,180,2.0,6.0,50,-99.99,,,-99.99,,2013-03-09 23:32:00,
2013-03-09 18:42:00,40.0,23.0,-100.00,South,180,2.0,6.0,50,-99.99,,,-99.99,,2013-03-09 23:42:00,
2013-03-09 18:52:00,40.0,23.0,-100.00,SSE,160,6.0,16.0,50,-99.99,,,-99.99,,2013-03-09 23:52:00,
2013-03-09 19:02:00,40.0,23.0,-100.00,SSE,160,6.0,16.0,50,-99.99,,,-99.99,,2013-03-10 00:02:00,
2013-03-09 19:12:00,40.0,23.0,-100.00,SSE,160,6.0,16.0,50,-99.99,,,-99.99,,2013-03-10 00:12:00,
2013-03-09 19:22:00,41.0,23.0,-100.00,SSE,155,5.0,11.0,49,-99.99,,,-99.99,,2013-03-10 00:22:00,
2013-03-09 19:32:00,41.0,24.0,-100.00,South,175,4.0,14.0,50,-99.99,,,-99.99,,2013-03-10 00:32:00,
2013-03-09 19:43:00,41.0,24.0,-100.00,South,175,4.0,14.0,50,-99.99,,,-99.99,,2013-03-10 00:43:00,
2013-03-09 19:52:00,40.0,25.0,-100.00,SE,125,2.0,9.0,53,-99.99,,,-99.99,,2013-03-10 00:52:00,
2013-03-09 20:01:00,40.0,25.0,-100.00,South,175,6.0,11.0,54,-99.99,,,-99.99,,2013-03-10 01:01:00,
2013-03-09 20:11:00,40.0,25.0,-100.00,South,175,6.0,11.0,54,-99.99,,,-99.99,,2013-03-10 01:11:00,
2013-03-09 20:22:00,39.0,25.0,-100.00,SE,145,6.0,15.0,57,-99.99,,,-99.99,,2013-03-10 01:22:00,
2013-03-09 20:32:00,40.0,26.0,-100.00,South,175,3.0,9.0,57,-99.99,,,-99.99,,2013-03-10 01:32:00,
2013-03-09 20:42:00,40.0,26.0,-100.00,South,175,3.0,9.0,57,-99.99,,,-99.99,,2013-03-10 01:42:00,
2013-03-09 20:52:00,39.0,26.0,-100.00,South,175,3.0,10.0,59,-99.99,,,-99.99,,2013-03-10 01:52:00,
2013-03-09 21:01:00,39.0,26.0,-100.00,SSE,160,6.0,14.0,59,-99.99,,,-99.99,,2013-03-10 02:01:00,
2013-03-09 21:11:00,39.0,26.0,-100.00,SSE,160,6.0,14.0,59,-99.99,,,-99.99,,2013-03-10 02:11:00,
2013-03-09 21:22:00,39.0,27.0,-100.00,SE,135,5.0,11.0,62,-99.99,,,-99.99,,2013-03-10 02:22:00,
2013-03-09 21:32:00,38.0,28.0,-100.00,SSW,195,4.0,9.0,67,-99.99,,,-99.99,,2013-03-10 02:32:00,
2013-03-09 21:42:00,38.0,28.0,-100.00,SSW,195,4.0,9.0,67,-99.99,,,-99.99,,2013-03-10 02:42:00,
2013-03-09 21:52:00,38.0,29.0,-100.00,South,180,4.0,10.0,72,-99.99,,,-99.99,,2013-03-10 02:52:00,
2013-03-09 22:02:00,36.0,29.0,-100.00,ESE,120,4.0,9.0,75,-99.99,,,-99.99,,2013-03-10 03:02:00,
2013-03-09 22:12:00,36.0,31.0,-100.00,SSE,160,2.0,11.0,82,-99.99,,,-99.99,,2013-03-10 03:12:00,
2013-03-09 22:22:00,36.0,31.0,-100.00,SSE,160,2.0,11.0,82,-99.99,,,-99.99,,2013-03-10 03:22:00,
2013-03-09 22:32:00,35.0,32.0,-100.00,SSE,165,4.0,11.0,87,-99.99,,,-99.99,,2013-03-10 03:32:00,
2013-03-09 22:42:00,35.0,32.0,-100.00,SSE,165,4.0,11.0,87,-99.99,,,-99.99,,2013-03-10 03:42:00,
2013-03-09 22:52:00,36.0,33.0,-100.00,SSE,150,4.0,13.0,89,-99.99,,,-99.99,,2013-03-10 03:52:00,
2013-03-09 23:01:00,36.0,33.0,-100.00,SSE,160,5.0,11.0,91,-99.99,,,-99.99,,2013-03-10 04:01:00,
2013-03-09 23:11:00,36.0,33.0,-100.00,SSE,160,5.0,11.0,91,-99.99,,,-99.99,,2013-03-10 04:11:00,
2013-03-09 23:22:00,36.0,34.0,-100.00,SSE,160,4.0,11.0,92,-99.99,,,-99.99,,2013-03-10 04:22:00,
2013-03-09 23:32:00,35.0,34.0,-100.00,SSE,150,5.0,14.0,93,-99.99,,,-99.99,,2013-03-10 04:32:00,
2013-03-09 23:42:00,35.0,34.0,-100.00,SSE,150,5.0,14.0,93,-99.99,,,-99.99,,2013-03-10 04:42:00,
2013-03-09 23:52:00,36.0,34.0,-100.00,SSE,160,6.0,15.0,93,-99.99,,,-99.99,,2013-03-10 04:52:00,